Theta_e
331 328 332 335 335 336 337 339 341 342 340 339 340 343 344 345 344 343 344 345 347 347 347 349 351 352 353 351 350 348 346 349 350
328 331 332 335 336 337 338 338 342 342 341 340 340 342 344 345 346 344 343 346 348 347 349 349 350 351 353 351 351 352 352 351 351
328 331 331 333 334 336 338 340 343 344 342 340 341 342 343 344 346 347 347 347 347 347 347 350 349 348 349 351 352 353 350 351 351
326 329 332 334 337 339 340 342 343 345 343 341 342 342 342 344 345 348 349 347 349 350 350 349 347 348 349 350 351 353 352 350 350
328 329 330 333 336 338 338 339 342 343 343 342 344 345 345 343 345 347 348 347 348 351 351 349 346 348 349 350 349 351 352 350 352
327 330 332 332 334 335 336 338 340 342 341 340 340 341 342 345 345 347 347 348 350 351 352 351 348 347 347 344 346 348 350 351 351
326 328 331 333 333 335 336 337 339 339 340 340 340 341 341 340 341 342 343 345 346 348 351 351 348 347 347 346 346 344 344 349 352
324 325 327 329 331 333 334 336 339 340 341 340 340 338 339 339 340 340 341 341 341 343 344 347 350 349 348 347 345 345 347 349 351
321 323 325 327 329 330 332 334 336 336 335 339 340 338 338 338 338 337 336 339 339 339 339 341 343 345 347 348 349 336 336 347 352
320 322 324 325 326 327 327 329 331 330 331 333 334 334 335 336 334 334 334 335 335 334 335 337 339 341 341 341 344 328 329 335 347
317 317 317 320 324 325 320 320 319 320 321 322 322 322 325 329 333 332 332 330 330 330 330 332 334 337 339 341 338 323 324 331 343
312 314 315 317 318 318 317 316 316 315 315 315 314 314 315 317 323 324 326 328 329 328 326 326 328 333 339 331 326 318 323 333 341
312 314 318 316 315 315 314 315 314 311 310 310 309 311 311 314 315 317 319 323 326 327 325 327 330 334 333 326 325 312 315 323 328
312 314 313 314 313 309 309 309 309 307 307 306 308 309 309 309 311 312 314 314 315 316 315 317 324 322 319 316 313 310 309 311 319
308 308 308 308 306 305 306 306 306 304 304 305 306 306 306 307 307 309 310 311 308 309 311 312 311 311 313 314 313 308 307 307 309
306 306 305 306 304 302 303 304 304 303 303 305 304 303 303 303 304 306 307 306 305 305 306 307 307 307 307 308 306 304 304 304 306
305 304 303 303 302 301 301 302 302 302 302 303 302 301 300 301 301 301 303 304 303 303 302 302 302 302 302 303 301 300 300 301 303
305 304 304 303 302 301 300 301 301 301 301 301 299 299 299 299 299 299 300 301 301 301 300 300 299 298 300 298 296 296 297 296 297
305 304 302 301 301 300 299 300 299 300 301 300 298 297 297 297 298 298 297 297 297 298 298 297 295 295 297 297 295 295 294 293 294
304 302 301 301 300 300 299 299 299 300 300 299 298 296 296 297 296 295 295 295 294 293 295 297 295 294 294 294 293 293 292 292 293
Wind_Speed
12 9 13 14 13 9 6 6 9 10 11 10 8 7 7 5 6 4 4 4 3 3 3 3 3 4 4 4 4 3 3 1 1
15 11 12 16 14 12 5 6 9 11 10 8 7 6 5 5 5 6 5 5 3 2 3 3 3 3 4 3 4 4 4 3 3
13 11 10 10 9 13 12 8 8 10 8 8 7 7 5 4 5 5 4 3 4 3 3 3 3 3 3 3 4 4 4 2 2
12 13 13 12 9 9 10 4 0 6 7 7 7 8 6 6 5 4 3 4 4 4 3 4 4 4 4 5 5 4 4 4 3
7 4 6 9 11 11 10 9 3 3 5 3 4 5 5 6 5 5 4 5 5 4 4 2 5 4 4 4 3 3 5 4 4
7 7 7 8 9 11 10 9 5 5 5 7 4 1 5 5 3 2 2 3 3 4 4 4 3 4 5 4 4 4 5 5 5
7 5 6 8 7 6 4 6 11 10 9 9 6 5 4 8 7 5 4 4 3 3 3 4 4 5 6 6 5 4 5 5 5
10 6 5 6 7 8 8 8 8 8 8 9 9 8 5 7 7 7 7 7 6 7 8 6 4 3 4 4 4 5 6 6 6
10 9 7 7 7 8 8 8 6 7 7 5 6 7 7 6 6 7 6 7 7 7 7 8 8 9 6 5 4 7 8 6 5
9 9 8 8 8 8 7 8 7 8 8 8 8 7 5 6 7 6 3 6 7 7 6 6 7 6 7 6 6 10 5 3 5
11 10 10 9 9 11 11 10 12 11 11 11 10 9 8 7 6 5 4 5 6 5 3 5 5 5 4 5 7 10 8 6 3
7 11 11 11 11 12 11 11 10 13 12 11 10 10 8 7 6 7 6 6 5 3 4 3 4 3 6 9 11 18 16 10 8
11 10 9 12 11 11 11 8 10 13 10 10 10 7 7 6 6 6 5 3 4 3 4 3 3 9 9 11 12 19 20 13 7
9 9 11 10 10 10 8 6 9 11 10 10 6 6 6 6 6 6 6 7 7 7 7 8 7 10 8 11 12 12 19 17 8
10 12 10 9 11 8 6 5 8 8 8 3 4 5 7 6 7 6 6 8 8 8 7 8 8 7 6 7 7 12 16 16 13
7 7 8 7 10 8 6 5 5 8 3 5 5 6 7 6 7 7 7 8 7 6 6 6 6 6 5 5 6 8 16 15 16
8 7 7 6 8 8 6 4 6 6 4 5 6 7 6 6 7 7 7 6 6 6 6 5 6 5 5 5 7 8 9 8 8
7 7 6 5 7 6 5 4 5 4 5 6 8 6 5 6 6 6 7 7 6 7 7 7 6 6 6 6 7 8 10 8 8
8 9 6 7 7 9 7 5 4 3 4 5 6 6 5 5 5 6 5 5 6 12 12 14 13 11 10 7 10 12 12 14 14
8 6 7 6 6 5 6 5 5 4 3 5 5 6 5 5 6 6 6 6 6 6 6 8 10 11 11 10 10 11 11 13 11
Wind_Direction
192 186 173 166 147 135 152 182 184 184 185 191 190 185 185 185 163 163 180 200 209 228 203 203 176 189 190 194 185 196 183 209 191
159 165 166 167 154 130 150 192 192 197 195 193 177 187 173 186 181 168 190 221 201 218 212 209 207 200 217 207 206 192 175 179 201
152 147 146 157 169 169 183 211 189 183 183 182 174 169 180 183 202 199 193 201 218 208 261 256 213 200 229 230 208 208 194 186 211
140 155 153 149 141 144 149 92 158 162 161 174 172 173 173 180 198 218 199 222 238 223 199 206 216 211 224 223 221 205 209 212 201
128 136 146 159 152 144 143 127 84 83 104 184 179 170 165 187 184 201 208 220 236 241 248 224 216 216 205 198 206 221 215 228 225
146 154 168 178 170 168 166 144 134 115 120 96 45 218 138 114 105 152 235 258 274 259 250 226 214 213 218 222 245 232 236 229 244
130 143 144 165 168 170 166 170 163 154 133 123 107 64 69 101 94 89 68 47 31 304 278 254 209 216 223 212 226 232 240 235 241
136 130 124 124 137 148 133 129 139 161 155 152 151 137 115 101 102 94 89 72 56 58 51 29 342 275 252 245 221 236 226 220 231
144 139 132 122 122 120 123 134 127 115 103 142 143 128 124 119 102 92 89 84 69 59 56 53 36 28 1 314 275 269 264 248 228
130 133 124 107 96 98 91 87 105 91 94 93 84 82 80 93 83 79 78 100 87 67 60 55 48 35 24 11 10 339 339 270 245
125 122 108 95 96 85 78 79 76 82 81 81 79 66 62 64 88 96 72 65 79 80 55 65 61 19 20 47 24 354 11 359 320
99 112 103 96 96 100 88 84 88 83 71 69 66 55 45 40 61 75 70 63 55 45 66 62 68 41 43 70 40 16 14 29 49
113 104 110 109 103 103 99 99 96 86 80 73 63 50 50 37 41 54 61 75 66 36 33 26 67 85 70 51 58 22 25 17 47
105 109 115 106 96 89 80 75 95 88 86 78 80 73 60 50 42 52 38 54 41 38 50 58 55 66 54 68 48 30 36 26 43
117 111 97 98 95 84 73 60 90 86 78 70 73 74 66 52 49 54 54 65 54 45 48 57 52 54 53 53 43 36 29 26 37
91 99 104 97 105 96 66 66 76 91 80 94 78 73 69 62 59 54 49 61 60 59 49 60 52 54 41 41 20 20 18 17 3
116 121 117 116 109 102 93 79 85 100 99 80 80 75 71 58 62 56 51 61 61 62 56 61 62 59 46 39 25 14 5 2 352
134 126 126 130 125 117 109 95 82 98 107 108 96 86 74 68 65 62 66 61 53 74 59 61 63 45 48 39 26 4 347 349 343
150 147 142 134 141 143 143 138 123 96 94 105 106 96 91 87 84 73 67 75 74 43 66 59 51 58 54 46 19 354 352 344 343
146 142 148 148 152 132 139 143 129 132 122 113 109 113 104 101 96 93 90 77 77 87 44 57 46 44 52 41 11 356 350 348 345